User: anonymous   Login
Location: Unspecified
(0.0000°N, 0.0000°E)
Time: 08:41:25
(UTC+00:00)
Language:

Courier 1B Rocket - Orbit

View from above orbital plane
View from above orbital plane
View from above satellite
View from above satellite

Ground track
Ground track

The orbit data is extracted from the following two-line orbital elements,

1    59U 60013B   17113.94566881 +.00000101 +00000-0 +19611-4 0  9998
2    59 028.2504 007.9849 0189143 349.8200 009.8550 13.52948945790672
Epoch (UTC): 23 April 2017 22:41:45
Eccentricity: 0.0189143
inclination: 28.2504°
perigee height: 921 km
apogee height: 1202 km
right ascension of ascending node: 7.9849°
argument of perigee: 349.8200°
revolutions per day: 13.52948945
mean anomaly at epoch: 9.8550°
orbit number at epoch: 79067

The dashed part of the orbit path shows where the satellite is in the earth's shadow,  

DLR